Accueil
METAR-TAF:

METAR-TAF

Aéroports :

Valence, France

Aéroport de Valence-Chabeuil

latitude: 44-54-58N, longitude: 4-58-06E, altitude: 160 m

Observation

Le bulletin a été fait il y a 8 heures et 29 minutes, à 18:00 UTC
Vent 16 kt de sud-ouest
Température 13°C
Humidité 62%
Pression 1006 hPa
Visibilité 10 km ou plus
Ciel couvert à une hauteur de 6400 ft

METAR: LFLU 301800Z AUTO 22016KT 9999 OVC064 13/06 Q1006

Heure: 04:29 (02:29 UTC)


TAF: absent

Observations et prévisions météorologiques de plus de 4000 aéroports (messages METAR et TAF).

Les stations disponibles sont représentées par des disques jaunes et rouges sur la carte.

Passer la souris dessus pour voir le nom de la station.

Cliquer dessus pour voir les observations et prévisions météorologiques.

Pour changer de carte: cliquez sur les boutons verts avec une croix noire pour zoomer, sur le bouton vert avec un tiret pour effectuer un zoom arrière, ou sur les flèches vertes pour les cartes adjacentes.


METAR-TAF: